• In Russia
  • List of Countries
  • For 7 days
  • Water Temperature
  • Satellite Maps
  • Weather Map
  • Weather Widgets
  • user-avatar
    Login

    Hourly Weather Sydney

    Today, 11 December, Sunday

    Time Temperature Precipitation Wind Pressure Humidity
    00:00 +17°C° 0 mm 3 mps 765 mmHg 90%
    01:00 +16°C° 0 mm 3 mps 765 mmHg 90%
    02:00 +16°C° 0 mm 3 mps 765 mmHg 93%
    03:00 +14°C° 0 mm 3 mps 765 mmHg 95%
    04:00 +13°C° 0 mm 3 mps 765 mmHg 97%
    05:00 +16°C° 0 mm 3 mps 765 mmHg 89%
    06:00 +19°C° 0 mm 3 mps 765 mmHg 80%
    07:00 +21°C° 0 mm 3 mps 765 mmHg 72%
    08:00 +24°C° 0 mm 3 mps 765 mmHg 64%
    09:00 +26°C° 0 mm 3 mps 765 mmHg 57%
    10:00 +28°C° 0 mm 3 mps 765 mmHg 50%
    11:00 +29°C° 0 mm 3 mps 764 mmHg 47%
    12:00 +30°C° 0 mm 4 mps 764 mmHg 44%
    13:00 +30°C° 0 mm 4 mps 764 mmHg 41%
    14:00 +29°C° 0 mm 5 mps 764 mmHg 47%
    15:00 +28°C° 0 mm 5 mps 763 mmHg 52%
    16:00 +27°C° 0 mm 6 mps 763 mmHg 57%
    17:00 +26°C° 0.1 mm 5 mps 764 mmHg 65%
    18:00 +23°C° 0.1 mm 5 mps 764 mmHg 72%
    19:00 +22°C° 0.1 mm 5 mps 765 mmHg 79%
    20:00 +21°C° 0 mm 5 mps 765 mmHg 84%
    21:00 +20°C° 0 mm 4 mps 766 mmHg 89%
    22:00 +19°C° 0 mm 4 mps 766 mmHg 93%
    23:00 +19°C° 0 mm 4 mps 766 mmHg 94%

    Tomorrow, 12 December, Monday

    Time Temperature Precipitation Wind Pressure Humidity
    00:00 +18°C° 0 mm 4 mps 766 mmHg 95%
    01:00 +18°C° 0 mm 3 mps 765 mmHg 96%
    02:00 +17°C° 0 mm 3 mps 765 mmHg 96%
    03:00 +17°C° 0 mm 3 mps 765 mmHg 97%
    04:00 +16°C° 0 mm 3 mps 765 mmHg 97%
    05:00 +18°C° 0 mm 3 mps 765 mmHg 90%
    06:00 +20°C° 0 mm 3 mps 766 mmHg 83%
    07:00 +22°C° 0 mm 3 mps 766 mmHg 76%
    08:00 +25°C° 0 mm 4 mps 766 mmHg 67%
    09:00 +27°C° 0 mm 4 mps 765 mmHg 57%
    10:00 +30°C° 0 mm 4 mps 765 mmHg 48%
    11:00 +32°C° 0 mm 5 mps 765 mmHg 43%
    12:00 +34°C° 0 mm 5 mps 764 mmHg 39%
    13:00 +35°C° 0 mm 5 mps 763 mmHg 34%
    14:00 +34°C° 0 mm 6 mps 763 mmHg 37%
    15:00 +33°C° 0 mm 6 mps 762 mmHg 40%
    16:00 +32°C° 0 mm 7 mps 762 mmHg 43%
    17:00 +29°C° 0 mm 7 mps 762 mmHg 50%
    18:00 +27°C° 0 mm 7 mps 762 mmHg 56%
    19:00 +26°C° 0 mm 7 mps 762 mmHg 63%
    20:00 +24°C° 0 mm 7 mps 762 mmHg 65%
    21:00 +23°C° 0 mm 6 mps 762 mmHg 68%
    22:00 +22°C° 0 mm 6 mps 762 mmHg 70%
    23:00 +22°C° 0 mm 6 mps 762 mmHg 72%

    Day after tomorrow, 13 December, Tuesday

    Time Temperature Precipitation Wind Pressure Humidity
    00:00 +21°C° 0 mm 5 mps 762 mmHg 74%
    01:00 +20°C° 0 mm 5 mps 761 mmHg 77%
    02:00 +20°C° 0 mm 4 mps 761 mmHg 76%
    03:00 +20°C° 0 mm 4 mps 761 mmHg 75%
    04:00 +20°C° 0 mm 4 mps 761 mmHg 74%
    05:00 +22°C° 0 mm 4 mps 761 mmHg 65%
    06:00 +25°C° 0 mm 4 mps 761 mmHg 55%
    07:00 +28°C° 0 mm 4 mps 761 mmHg 45%
    08:00 +32°C° 0 mm 4 mps 761 mmHg 37%
    09:00 +35°C° 0 mm 4 mps 761 mmHg 30%
    10:00 +38°C° 0 mm 4 mps 760 mmHg 22%
    11:00 +39°C° 0 mm 5 mps 760 mmHg 21%
    12:00 +40°C° 0 mm 5 mps 759 mmHg 19%
    13:00 +41°C° 0 mm 6 mps 758 mmHg 18%
    14:00 +41°C° 0 mm 6 mps 758 mmHg 18%
    15:00 +41°C° 0 mm 7 mps 757 mmHg 18%
    16:00 +41°C° 0 mm 7 mps 757 mmHg 19%
    17:00 +38°C° 0 mm 7 mps 757 mmHg 24%
    18:00 +35°C° 0 mm 7 mps 757 mmHg 29%
    19:00 +32°C° 0 mm 7 mps 757 mmHg 34%
    20:00 +30°C° 0 mm 6 mps 757 mmHg 36%
    21:00 +29°C° 0 mm 6 mps 757 mmHg 37%
    22:00 +28°C° 0 mm 6 mps 757 mmHg 39%
    23:00 +28°C° 0 mm 6 mps 757 mmHg 38%

    14 December, Wednesday

    Time Temperature Precipitation Wind Pressure Humidity
    00:00 +28°C° 0 mm 5 mps 756 mmHg 37%
    01:00 +28°C° 0 mm 5 mps 755 mmHg 36%
    02:00 +28°C° 0 mm 5 mps 755 mmHg 34%
    03:00 +29°C° 0 mm 5 mps 755 mmHg 32%
    04:00 +29°C° 0 mm 5 mps 755 mmHg 30%
    05:00 +30°C° 0 mm 5 mps 755 mmHg 29%
    06:00 +32°C° 0 mm 5 mps 756 mmHg 28%
    07:00 +33°C° 0 mm 5 mps 756 mmHg 27%
    08:00 +35°C° 0 mm 6 mps 756 mmHg 25%
    09:00 +36°C° 0 mm 6 mps 756 mmHg 22%
    10:00 +39°C° 0 mm 6 mps 756 mmHg 20%
    11:00 +40°C° 0 mm 6 mps 756 mmHg 19%
    12:00 +40°C° 0 mm 5 mps 755 mmHg 19%
    13:00 +41°C° 0 mm 5 mps 755 mmHg 18%
    14:00 +41°C° 0 mm 5 mps 755 mmHg 19%
    15:00 +40°C° 0 mm 5 mps 754 mmHg 21%
    16:00 +40°C° 0 mm 5 mps 754 mmHg 22%
    17:00 +34°C° 0 mm 5 mps 755 mmHg 39%
    18:00 +29°C° 0 mm 6 mps 756 mmHg 56%
    19:00 +24°C° 0 mm 7 mps 757 mmHg 74%
    20:00 +23°C° 0 mm 7 mps 757 mmHg 76%
    21:00 +22°C° 0 mm 7 mps 758 mmHg 79%
    22:00 +21°C° 0 mm 7 mps 758 mmHg 82%
    23:00 +21°C° 0.1 mm 7 mps 759 mmHg 82%

    15 December, Thursday

    Time Temperature Precipitation Wind Pressure Humidity
    00:00 +21°C° 0.1 mm 6 mps 759 mmHg 82%
    01:00 +20°C° 0.1 mm 6 mps 759 mmHg 82%
    02:00 +20°C° 0.1 mm 6 mps 759 mmHg 82%
    03:00 +20°C° 0.1 mm 6 mps 760 mmHg 82%
    04:00 +20°C° 0.1 mm 5 mps 760 mmHg 83%
    05:00 +20°C° 0.1 mm 5 mps 760 mmHg 83%
    06:00 +20°C° 0.1 mm 5 mps 761 mmHg 83%
    07:00 +20°C° 0.1 mm 5 mps 762 mmHg 83%
    08:00 +20°C° 0.2 mm 5 mps 762 mmHg 84%
    09:00 +20°C° 0.2 mm 4 mps 762 mmHg 84%
    10:00 +20°C° 0.2 mm 4 mps 762 mmHg 85%
    11:00 +20°C° 0.3 mm 4 mps 762 mmHg 85%
    12:00 +20°C° 0.3 mm 4 mps 762 mmHg 86%
    13:00 +20°C° 0.3 mm 4 mps 762 mmHg 86%
    14:00 +20°C° 0.7 mm 4 mps 762 mmHg 88%
    15:00 +19°C° 0.7 mm 4 mps 762 mmHg 90%
    16:00 +19°C° 0.7 mm 5 mps 762 mmHg 92%
    17:00 +19°C° 0.6 mm 5 mps 762 mmHg 93%
    18:00 +19°C° 0.6 mm 5 mps 763 mmHg 94%
    19:00 +18°C° 0.6 mm 4 mps 763 mmHg 95%
    20:00 +18°C° 1.3 mm 4 mps 763 mmHg 95%
    21:00 +18°C° 1.3 mm 4 mps 763 mmHg 96%
    22:00 +18°C° 1.3 mm 4 mps 764 mmHg 96%
    23:00 +18°C° 0.8 mm 4 mps 763 mmHg 96%

    16 December, Friday

    Time Temperature Precipitation Wind Pressure Humidity
    00:00 +18°C° 0.8 mm 4 mps 763 mmHg 96%
    01:00 +18°C° 0.8 mm 3 mps 762 mmHg 96%
    02:00 +18°C° 0.4 mm 3 mps 762 mmHg 96%
    03:00 +18°C° 0.4 mm 3 mps 762 mmHg 96%
    04:00 +18°C° 0.4 mm 3 mps 762 mmHg 96%
    05:00 +19°C° 0.1 mm 3 mps 762 mmHg 95%
    06:00 +19°C° 0.1 mm 3 mps 762 mmHg 93%
    07:00 +19°C° 0.1 mm 3 mps 763 mmHg 91%
    08:00 +20°C° 0.1 mm 3 mps 762 mmHg 90%
    09:00 +20°C° 0.1 mm 3 mps 762 mmHg 89%
    10:00 +20°C° 0.1 mm 3 mps 762 mmHg 88%
    11:00 +20°C° 0.1 mm 3 mps 762 mmHg 85%
    12:00 +21°C° 0.1 mm 3 mps 762 mmHg 82%
    13:00 +21°C° 0.1 mm 2 mps 761 mmHg 80%
    14:00 +21°C° 0 mm 2 mps 761 mmHg 79%
    15:00 +21°C° 0 mm 2 mps 761 mmHg 78%
    16:00 +21°C° 0 mm 2 mps 760 mmHg 78%
    17:00 +21°C° 0 mm 2 mps 761 mmHg 81%
    18:00 +20°C° 0 mm 2 mps 761 mmHg 84%
    19:00 +19°C° 0 mm 2 mps 761 mmHg 87%
    20:00 +19°C° 0 mm 2 mps 761 mmHg 89%
    21:00 +19°C° 0 mm 1 mps 761 mmHg 91%
    22:00 +19°C° 0 mm 1 mps 761 mmHg 93%
    23:00 +18°C° 0 mm 1 mps 761 mmHg 94%
    Show more